SHIYAN-12 01 (SY-12 01)

Last updated on Sun Apr 12 2026 00:02:56 GMT+0000 (Coordinated Universal Time)

1 50321U 21129A 26101.80553978 -.00000337 00000+0 00000+0 0 9993 2 50321 3.5023 80.7900 0003208 266.4997 255.7762 1.00076241 15838
UTC large
Height (km)
Speed (km/s)
/
Latitude / Longitude
Inclination (degrees)
Orbital Period (minutes)
Azimuth
Elevation
Range (km)
Doppler Factor

Next 0 passes for location: London (51.5072 / 0.1276)

Sorry there are no passes over London.
SHIYAN-12 01 (SY-12 01)